1579474835,2020-01-20 00:00,21.92,1012.50,1038.28,214,26.80,3.27,-25,1
1579474895,2020-01-20 00:01,22.00,1012.53,1038.31,214,26.80,3.33,-27,1
1579474956,2020-01-20 00:02,21.91,1012.54,1038.32,214,26.80,3.26,-27,1
1579475016,2020-01-20 00:03,21.84,1012.56,1038.34,214,26.80,3.22,-31,1
1579475076,2020-01-20 00:04,21.89,1012.54,1038.32,214,26.80,3.26,-27,1
1579475137,2020-01-20 00:05,21.87,1012.56,1038.34,214,26.79,3.24,-25,1
1579475197,2020-01-20 00:06,21.73,1012.56,1038.34,214,26.80,3.15,-27,1
1579475257,2020-01-20 00:07,21.78,1012.56,1038.35,214,26.79,3.18,-28,1
1579475317,2020-01-20 00:08,21.84,1012.59,1038.38,214,26.80,3.22,-29,1
1579475377,2020-01-20 00:09,21.83,1012.59,1038.37,214,26.80,3.21,-25,1
1579475438,2020-01-20 00:10,21.75,1012.59,1038.37,214,26.79,3.16,-25,1
1579475498,2020-01-20 00:11,21.78,1012.60,1038.38,214,26.79,3.18,-26,1
1579475558,2020-01-20 00:12,21.77,1012.61,1038.39,214,26.79,3.17,-27,1
1579475619,2020-01-20 00:13,21.76,1012.62,1038.41,214,26.79,3.16,-26,1
1579475679,2020-01-20 00:14,21.71,1012.62,1038.40,214,26.79,3.13,-29,1
1579475739,2020-01-20 00:15,21.73,1012.63,1038.41,214,26.79,3.14,-28,1
1579475799,2020-01-20 00:16,21.71,1012.67,1038.46,214,26.79,3.13,-25,1
1579475860,2020-01-20 00:17,21.66,1012.68,1038.47,214,26.78,3.09,-24,1
1579475920,2020-01-20 00:18,21.46,1012.69,1038.47,214,26.78,2.96,-24,1
1579475980,2020-01-20 00:19,21.60,1012.72,1038.51,214,26.78,3.05,-30,1
1579476041,2020-01-20 00:20,21.63,1012.72,1038.50,214,26.78,3.07,-21,1
1579476101,2020-01-20 00:21,21.58,1012.73,1038.51,214,26.78,3.04,-28,1
1579476161,2020-01-20 00:22,21.52,1012.75,1038.53,214,26.78,3.00,-30,1
1579476221,2020-01-20 00:23,21.55,1012.77,1038.55,214,26.78,3.02,-27,1
1579476281,2020-01-20 00:24,21.55,1012.77,1038.56,214,26.78,3.02,-25,1
1579476342,2020-01-20 00:25,21.58,1012.80,1038.59,214,26.78,3.04,-30,1
1579476402,2020-01-20 00:26,21.59,1012.81,1038.60,214,26.78,3.05,-24,1
1579476462,2020-01-20 00:27,21.63,1012.79,1038.58,214,26.79,3.08,-27,1
1579476522,2020-01-20 00:28,21.50,1012.81,1038.59,214,26.78,2.98,-31,1
1579476583,2020-01-20 00:29,21.48,1012.84,1038.62,214,26.78,2.97,-24,1
1579476643,2020-01-20 00:30,21.43,1012.86,1038.64,214,26.78,2.94,-28,1
1579476703,2020-01-20 00:31,21.42,1012.83,1038.61,214,26.78,2.93,-28,1
1579476764,2020-01-20 00:32,21.48,1012.85,1038.64,214,26.78,2.97,-26,1
1579476824,2020-01-20 00:33,21.47,1012.87,1038.65,214,26.78,2.97,-26,1
1579476884,2020-01-20 00:34,21.42,1012.88,1038.66,214,26.78,2.93,-29,1
1579476945,2020-01-20 00:35,21.38,1012.89,1038.67,214,26.78,2.91,-23,1
1579477005,2020-01-20 00:36,21.39,1012.91,1038.69,214,26.78,2.91,-26,1
1579477068,2020-01-20 00:37,21.44,1012.92,1038.70,214,26.77,2.94,-26,1
1579477128,2020-01-20 00:38,21.41,1012.94,1038.72,214,26.77,2.91,-24,1
1579477188,2020-01-20 00:39,21.37,1012.95,1038.74,214,26.77,2.89,-27,1
1579477249,2020-01-20 00:40,21.39,1012.97,1038.75,214,26.77,2.91,-24,1
1579477309,2020-01-20 00:41,21.43,1012.99,1038.78,214,26.78,2.94,-32,1
1579477369,2020-01-20 00:42,21.33,1013.00,1038.78,214,26.78,2.87,-24,1
1579477430,2020-01-20 00:43,21.33,1013.00,1038.78,214,26.78,2.87,-25,1
1579477490,2020-01-20 00:44,21.27,1013.01,1038.80,214,26.77,2.83,-24,1
1579477550,2020-01-20 00:45,21.31,1013.02,1038.80,214,26.78,2.86,-27,1
1579477610,2020-01-20 00:46,21.29,1013.02,1038.80,214,26.78,2.85,-23,1
1579477671,2020-01-20 00:47,21.25,1013.04,1038.83,214,26.78,2.82,-26,1
1579477734,2020-01-20 00:48,21.14,1013.06,1038.84,214,26.78,2.75,-27,1
1579477794,2020-01-20 00:49,21.21,1013.06,1038.84,214,26.78,2.79,-25,1
1579477854,2020-01-20 00:50,21.24,1013.05,1038.83,214,26.78,2.81,-26,1
1579477915,2020-01-20 00:51,21.24,1013.05,1038.84,214,26.78,2.81,-24,1
1579477975,2020-01-20 00:52,21.44,1013.06,1038.85,214,26.78,2.94,-29,1
1579478035,2020-01-20 00:53,21.21,1013.10,1038.88,214,26.79,2.80,-31,1
1579478096,2020-01-20 00:54,21.16,1013.11,1038.89,214,26.79,2.77,-23,1
1579478156,2020-01-20 00:55,21.11,1013.13,1038.91,214,26.78,2.72,-26,1
1579478216,2020-01-20 00:56,21.13,1013.15,1038.94,214,26.78,2.74,-25,1
1579478276,2020-01-20 00:57,21.11,1013.17,1038.95,214,26.78,2.72,-31,1
1579478337,2020-01-20 00:58,21.22,1013.19,1038.98,214,26.78,2.80,-28,1
1579478397,2020-01-20 00:59,21.20,1013.19,1038.98,214,26.78,2.78,-28,1
1579478457,2020-01-20 01:00,21.15,1013.21,1038.99,214,26.78,2.75,-27,1
1579478518,2020-01-20 01:01,21.11,1013.21,1038.99,214,26.78,2.72,-23,1
1579478578,2020-01-20 01:02,21.08,1013.22,1039.01,214,26.78,2.71,-27,1
1579478641,2020-01-20 01:04,21.09,1013.27,1039.05,214,26.78,2.71,-29,1
1579478701,2020-01-20 01:05,21.06,1013.28,1039.07,214,26.78,2.69,-28,1
1579478761,2020-01-20 01:06,21.08,1013.25,1039.03,214,26.77,2.70,-28,1
1579478822,2020-01-20 01:07,21.02,1013.31,1039.09,214,26.78,2.66,-21,1
1579478882,2020-01-20 01:08,21.04,1013.32,1039.10,214,26.78,2.68,-29,1
1579478942,2020-01-20 01:09,21.02,1013.32,1039.11,214,26.78,2.66,-28,1
1579479002,2020-01-20 01:10,21.01,1013.32,1039.10,214,26.78,2.66,-27,1
1579479063,2020-01-20 01:11,20.96,1013.34,1039.12,214,26.78,2.63,-23,1
1579479123,2020-01-20 01:12,20.98,1013.36,1039.15,214,26.78,2.64,-27,1
1579479183,2020-01-20 01:13,21.01,1013.38,1039.17,214,26.78,2.66,-26,1
1579479243,2020-01-20 01:14,20.99,1013.41,1039.19,214,26.78,2.64,-26,1
1579479304,2020-01-20 01:15,21.04,1013.42,1039.20,214,26.78,2.68,-28,1
1579479364,2020-01-20 01:16,21.01,1013.41,1039.19,214,26.78,2.66,-28,1
1579479424,2020-01-20 01:17,20.95,1013.40,1039.18,214,26.78,2.62,-23,1
1579479485,2020-01-20 01:18,20.94,1013.46,1039.24,214,26.78,2.61,-26,1
1579479545,2020-01-20 01:19,20.93,1013.44,1039.23,214,26.78,2.61,-25,1
1579479605,2020-01-20 01:20,20.91,1013.46,1039.24,214,26.78,2.59,-31,1
1579479665,2020-01-20 01:21,20.98,1013.48,1039.26,214,26.78,2.64,-25,1
1579479726,2020-01-20 01:22,21.09,1013.42,1039.21,214,26.78,2.71,-27,1
1579479786,2020-01-20 01:23,20.89,1013.47,1039.25,214,26.78,2.58,-24,1
1579479846,2020-01-20 01:24,20.94,1013.47,1039.26,214,26.78,2.61,-26,1
1579479906,2020-01-20 01:25,20.82,1013.49,1039.28,214,26.78,2.53,-23,1
1579479967,2020-01-20 01:26,20.81,1013.47,1039.25,214,26.78,2.52,-28,1
1579480027,2020-01-20 01:27,20.81,1013.49,1039.27,214,26.77,2.52,-26,1
1579480087,2020-01-20 01:28,20.84,1013.51,1039.30,214,26.78,2.55,-24,1
1579480148,2020-01-20 01:29,20.80,1013.53,1039.32,214,26.77,2.51,-24,1
1579480208,2020-01-20 01:30,20.82,1013.53,1039.32,214,26.77,2.52,-27,1
1579480268,2020-01-20 01:31,20.79,1013.57,1039.35,214,26.77,2.50,-25,1
1579480328,2020-01-20 01:32,20.75,1013.58,1039.36,214,26.77,2.48,-29,1
1579480389,2020-01-20 01:33,20.79,1013.60,1039.38,214,26.77,2.50,-28,1
1579480449,2020-01-20 01:34,20.83,1013.65,1039.43,214,26.78,2.54,-30,1
1579480509,2020-01-20 01:35,20.72,1013.65,1039.43,214,26.77,2.46,-22,1
1579480569,2020-01-20 01:36,20.76,1013.67,1039.45,214,26.77,2.49,-26,1
1579480629,2020-01-20 01:37,20.79,1013.66,1039.44,214,26.77,2.50,-24,1
1579480690,2020-01-20 01:38,20.89,1013.67,1039.46,214,26.78,2.58,-25,1
1579480750,2020-01-20 01:39,20.72,1013.73,1039.51,214,26.78,2.46,-28,1
1579480810,2020-01-20 01:40,20.73,1013.75,1039.54,214,26.78,2.47,-26,1
1579480870,2020-01-20 01:41,20.71,1013.74,1039.53,214,26.77,2.45,-31,1
1579480930,2020-01-20 01:42,20.72,1013.75,1039.54,214,26.77,2.46,-24,1
1579480991,2020-01-20 01:43,20.64,1013.74,1039.53,214,26.77,2.40,-29,1
1579481051,2020-01-20 01:44,20.65,1013.75,1039.53,214,26.77,2.41,-31,1
1579481111,2020-01-20 01:45,20.72,1013.75,1039.53,214,26.77,2.46,-27,1
1579481172,2020-01-20 01:46,20.67,1013.74,1039.52,214,26.77,2.42,-24,1
1579481232,2020-01-20 01:47,20.69,1013.75,1039.53,214,26.78,2.44,-27,1
1579481292,2020-01-20 01:48,20.65,1013.76,1039.54,214,26.77,2.41,-25,1
1579481352,2020-01-20 01:49,20.65,1013.76,1039.54,214,26.77,2.41,-25,1
1579481413,2020-01-20 01:50,20.63,1013.77,1039.56,214,26.77,2.40,-28,1
1579481473,2020-01-20 01:51,20.62,1013.78,1039.56,214,26.77,2.39,-26,1
1579481533,2020-01-20 01:52,20.62,1013.81,1039.59,214,26.77,2.39,-28,1
1579481594,2020-01-20 01:53,20.61,1013.81,1039.59,214,26.77,2.38,-24,1
1579481654,2020-01-20 01:54,20.70,1013.80,1039.59,214,26.78,2.45,-23,1
1579481714,2020-01-20 01:55,20.65,1013.82,1039.60,214,26.78,2.42,-22,1
1579481775,2020-01-20 01:56,20.60,1013.85,1039.63,214,26.78,2.38,-28,1
1579481835,2020-01-20 01:57,20.57,1013.84,1039.62,214,26.77,2.35,-29,1
1579481895,2020-01-20 01:58,20.58,1013.89,1039.67,214,26.77,2.36,-25,1
1579481955,2020-01-20 01:59,20.61,1013.89,1039.67,214,26.78,2.39,-24,1
1579482016,2020-01-20 02:00,20.53,1013.89,1039.68,214,26.77,2.33,-23,1
1579482076,2020-01-20 02:01,20.57,1013.91,1039.69,214,26.77,2.35,-27,1
1579482136,2020-01-20 02:02,20.51,1013.94,1039.72,214,26.77,2.31,-29,1
1579482196,2020-01-20 02:03,20.51,1013.91,1039.69,214,26.76,2.30,-24,1
1579482257,2020-01-20 02:04,20.53,1013.97,1039.75,214,26.77,2.33,-25,1
1579482317,2020-01-20 02:05,20.55,1013.98,1039.76,214,26.77,2.34,-28,1
1579482377,2020-01-20 02:06,20.57,1013.96,1039.74,214,26.77,2.35,-23,1
1579482438,2020-01-20 02:07,20.58,1013.98,1039.77,214,26.76,2.35,-27,1
1579482498,2020-01-20 02:08,20.44,1013.98,1039.76,214,26.77,2.27,-24,1
1579482558,2020-01-20 02:09,20.49,1013.96,1039.75,214,26.76,2.29,-26,1
1579482618,2020-01-20 02:10,20.64,1013.99,1039.78,214,26.76,2.39,-29,1
1579482679,2020-01-20 02:11,20.45,1013.96,1039.75,214,26.76,2.27,-27,1
1579482739,2020-01-20 02:12,20.52,1013.96,1039.75,214,26.77,2.32,-27,1
1579482799,2020-01-20 02:13,20.44,1013.97,1039.75,214,26.77,2.27,-24,1
1579482860,2020-01-20 02:14,20.44,1013.99,1039.77,214,26.77,2.27,-27,1
1579482920,2020-01-20 02:15,20.34,1014.01,1039.79,214,26.77,2.20,-24,1
1579482980,2020-01-20 02:16,20.40,1014.00,1039.79,214,26.76,2.23,-28,1
1579483040,2020-01-20 02:17,20.38,1013.98,1039.77,214,26.76,2.21,-25,1
1579483101,2020-01-20 02:18,20.42,1014.01,1039.79,214,26.77,2.25,-28,1
1579483161,2020-01-20 02:19,20.39,1014.02,1039.81,214,26.77,2.23,-23,1
1579483221,2020-01-20 02:20,20.37,1014.01,1039.79,214,26.76,2.21,-25,1
1579483281,2020-01-20 02:21,20.35,1014.04,1039.82,214,26.76,2.20,-28,1
1579483342,2020-01-20 02:22,20.34,1014.06,1039.84,214,26.76,2.19,-28,1
1579483402,2020-01-20 02:23,20.34,1014.08,1039.87,214,26.76,2.19,-28,1
1579483462,2020-01-20 02:24,20.35,1014.11,1039.89,214,26.77,2.21,-25,1
1579483523,2020-01-20 02:25,20.38,1014.11,1039.90,214,26.76,2.21,-27,1
1579483583,2020-01-20 02:26,20.37,1014.13,1039.91,214,26.76,2.20,-29,1
1579483643,2020-01-20 02:27,20.31,1014.13,1039.91,214,26.76,2.17,-26,1
1579483703,2020-01-20 02:28,20.35,1014.15,1039.93,214,26.76,2.20,-27,1
1579483764,2020-01-20 02:29,20.33,1014.13,1039.92,214,26.76,2.18,-27,1
1579483824,2020-01-20 02:30,20.29,1014.14,1039.92,214,26.76,2.15,-26,1
1579483884,2020-01-20 02:31,20.33,1014.09,1039.87,214,26.76,2.18,-27,1
1579483944,2020-01-20 02:32,20.24,1014.11,1039.89,214,26.76,2.12,-26,1
1579484005,2020-01-20 02:33,20.31,1014.10,1039.88,214,26.76,2.17,-25,1
1579484065,2020-01-20 02:34,20.35,1014.09,1039.88,214,26.77,2.21,-25,1
1579484125,2020-01-20 02:35,20.30,1014.06,1039.84,214,26.77,2.17,-29,1
1579484186,2020-01-20 02:36,20.37,1014.08,1039.86,214,26.76,2.20,-29,1
1579484246,2020-01-20 02:37,20.31,1014.10,1039.88,214,26.77,2.18,-31,1
1579484306,2020-01-20 02:38,20.27,1014.10,1039.88,214,26.77,2.14,-27,1
1579484366,2020-01-20 02:39,20.27,1014.08,1039.86,214,26.77,2.14,-27,1
1579484427,2020-01-20 02:40,20.27,1014.09,1039.88,214,26.77,2.14,-22,1
1579484487,2020-01-20 02:41,20.33,1014.11,1039.89,214,26.76,2.18,-26,1
1579484547,2020-01-20 02:42,20.22,1014.11,1039.89,214,26.76,2.11,-24,1
1579484608,2020-01-20 02:43,20.25,1014.10,1039.89,214,26.77,2.14,-30,1
1579484668,2020-01-20 02:44,20.29,1014.12,1039.91,214,26.77,2.16,-24,1
1579484728,2020-01-20 02:45,20.29,1014.12,1039.90,214,26.77,2.16,-32,1
1579484788,2020-01-20 02:46,20.27,1014.14,1039.92,214,26.77,2.14,-26,1
1579484849,2020-01-20 02:47,20.25,1014.17,1039.96,214,26.77,2.14,-26,1
1579484909,2020-01-20 02:48,20.25,1014.20,1039.99,214,26.77,2.13,-26,1
1579484969,2020-01-20 02:49,20.21,1014.19,1039.97,214,26.77,2.11,-24,1
1579485029,2020-01-20 02:50,20.24,1014.27,1040.05,214,26.77,2.13,-28,1
1579485089,2020-01-20 02:51,20.17,1014.27,1040.05,214,26.76,2.07,-28,1
1579485149,2020-01-20 02:52,20.17,1014.28,1040.07,214,26.76,2.07,-23,1
1579485210,2020-01-20 02:53,20.22,1014.26,1040.04,214,26.77,2.11,-27,1
1579485270,2020-01-20 02:54,20.14,1014.30,1040.08,214,26.76,2.05,-29,1
1579485330,2020-01-20 02:55,20.18,1014.31,1040.10,214,26.76,2.07,-27,1
1579485390,2020-01-20 02:56,20.51,1014.33,1040.11,214,26.75,2.30,-25,1
1579485450,2020-01-20 02:57,20.17,1014.33,1040.11,214,26.77,2.08,-22,1
1579485510,2020-01-20 02:58,20.14,1014.38,1040.16,214,26.76,2.05,-25,1
1579485570,2020-01-20 02:59,20.16,1014.38,1040.16,214,26.76,2.06,-25,1
1579485630,2020-01-20 03:00,20.18,1014.38,1040.16,214,26.76,2.08,-24,1
1579485690,2020-01-20 03:01,20.11,1014.39,1040.17,214,26.76,2.03,-26,1
1579485750,2020-01-20 03:02,20.21,1014.39,1040.18,214,26.76,2.10,-25,1
1579485810,2020-01-20 03:03,20.07,1014.41,1040.20,214,26.76,2.00,-25,1
1579485870,2020-01-20 03:04,20.27,1014.42,1040.20,214,26.76,2.14,-21,1
1579485931,2020-01-20 03:05,20.09,1014.43,1040.21,214,26.76,2.01,-25,1
1579485991,2020-01-20 03:06,20.11,1014.45,1040.23,214,26.77,2.04,-28,1
1579486051,2020-01-20 03:07,20.16,1014.47,1040.25,214,26.77,2.07,-26,1
1579486111,2020-01-20 03:08,20.19,1014.48,1040.26,214,26.77,2.09,-24,1
1579486171,2020-01-20 03:09,19.97,1014.49,1040.27,214,26.76,1.93,-23,1
1579486231,2020-01-20 03:10,20.08,1014.50,1040.28,214,26.76,2.01,-29,1
1579486291,2020-01-20 03:11,20.28,1014.49,1040.27,214,26.77,2.15,-23,1
1579486351,2020-01-20 03:12,20.09,1014.52,1040.30,214,26.76,2.01,-28,1
1579486411,2020-01-20 03:13,20.08,1014.54,1040.32,214,26.77,2.01,-28,1
1579486471,2020-01-20 03:14,20.03,1014.51,1040.29,214,26.77,1.98,-24,1
1579486531,2020-01-20 03:15,19.96,1014.51,1040.29,214,26.77,1.93,-28,1
1579486591,2020-01-20 03:16,20.04,1014.53,1040.31,214,26.77,1.99,-28,1
1579486651,2020-01-20 03:17,20.06,1014.52,1040.31,214,26.76,1.99,-25,1
1579486712,2020-01-20 03:18,20.00,1014.55,1040.34,214,26.76,1.95,-30,1
1579486772,2020-01-20 03:19,20.05,1014.59,1040.38,214,26.77,1.99,-25,1
1579486832,2020-01-20 03:20,20.03,1014.58,1040.36,214,26.77,1.98,-26,1
1579486892,2020-01-20 03:21,20.02,1014.56,1040.34,214,26.77,1.98,-24,1
1579486952,2020-01-20 03:22,20.00,1014.56,1040.34,214,26.77,1.96,-24,1
1579487012,2020-01-20 03:23,20.01,1014.56,1040.34,214,26.77,1.97,-26,1
1579487072,2020-01-20 03:24,20.08,1014.55,1040.34,214,26.77,2.01,-23,1
1579487132,2020-01-20 03:25,20.18,1014.58,1040.36,214,26.77,2.08,-24,1
1579487192,2020-01-20 03:26,20.07,1014.57,1040.36,214,26.76,2.00,-24,1
1579487252,2020-01-20 03:27,19.91,1014.58,1040.36,214,26.77,1.90,-27,1
1579487312,2020-01-20 03:28,19.96,1014.61,1040.39,214,26.76,1.92,-21,1
1579487372,2020-01-20 03:29,19.97,1014.59,1040.37,214,26.76,1.93,-27,1
1579487433,2020-01-20 03:30,20.20,1014.60,1040.38,214,26.76,2.09,-28,1
1579487493,2020-01-20 03:31,19.93,1014.60,1040.38,214,26.76,1.91,-23,1
1579487553,2020-01-20 03:32,20.01,1014.62,1040.40,214,26.76,1.96,-26,1
1579487613,2020-01-20 03:33,19.98,1014.62,1040.41,214,26.77,1.94,-24,1
1579487673,2020-01-20 03:34,19.96,1014.63,1040.41,214,26.76,1.92,-28,1
1579487733,2020-01-20 03:35,19.81,1014.60,1040.38,214,26.76,1.82,-25,1
1579487793,2020-01-20 03:36,19.95,1014.61,1040.39,214,26.76,1.91,-30,1
1579487853,2020-01-20 03:37,19.90,1014.59,1040.37,214,26.76,1.88,-27,1
1579487913,2020-01-20 03:38,19.92,1014.59,1040.38,214,26.76,1.90,-25,1
1579487973,2020-01-20 03:39,19.91,1014.59,1040.37,214,26.76,1.89,-22,1
1579488033,2020-01-20 03:40,19.91,1014.62,1040.40,214,26.76,1.89,-26,1
1579488093,2020-01-20 03:41,19.74,1014.61,1040.39,214,26.76,1.76,-27,1
1579488154,2020-01-20 03:42,19.88,1014.59,1040.38,214,26.76,1.87,-25,1
1579488214,2020-01-20 03:43,19.91,1014.65,1040.43,214,26.76,1.89,-25,1
1579488274,2020-01-20 03:44,19.91,1014.66,1040.44,214,26.76,1.89,-29,1
1579488334,2020-01-20 03:45,19.90,1014.66,1040.44,214,26.77,1.89,-25,1
1579488394,2020-01-20 03:46,19.87,1014.67,1040.46,214,26.77,1.87,-29,1
1579488454,2020-01-20 03:47,19.85,1014.68,1040.46,214,26.76,1.84,-22,1
1579488514,2020-01-20 03:48,19.89,1014.69,1040.48,214,26.77,1.88,-24,1
1579488574,2020-01-20 03:49,19.92,1014.72,1040.50,214,26.77,1.91,-22,1
1579488634,2020-01-20 03:50,19.90,1014.71,1040.50,214,26.77,1.89,-30,1
1579488695,2020-01-20 03:51,19.92,1014.76,1040.54,214,26.77,1.91,-26,1
1579488755,2020-01-20 03:52,19.81,1014.74,1040.52,214,26.77,1.83,-25,1
1579488815,2020-01-20 03:53,19.75,1014.75,1040.53,214,26.77,1.78,-27,1
1579488875,2020-01-20 03:54,19.86,1014.76,1040.54,214,26.77,1.86,-30,1
1579488936,2020-01-20 03:55,19.83,1014.77,1040.55,214,26.77,1.84,-27,1
1579488996,2020-01-20 03:56,19.85,1014.80,1040.58,214,26.77,1.85,-30,1
1579489056,2020-01-20 03:57,19.82,1014.81,1040.59,214,26.77,1.84,-31,1
1579489116,2020-01-20 03:58,19.79,1014.78,1040.57,214,26.77,1.81,-26,1
1579489177,2020-01-20 03:59,19.81,1014.81,1040.59,214,26.77,1.83,-25,1
1579489237,2020-01-20 04:00,19.75,1014.84,1040.62,214,26.76,1.77,-29,1
1579489297,2020-01-20 04:01,19.75,1014.86,1040.64,214,26.76,1.77,-25,1
1579489357,2020-01-20 04:02,19.97,1014.89,1040.67,214,26.76,1.93,-27,1
1579489418,2020-01-20 04:03,19.75,1014.88,1040.66,214,26.76,1.77,-24,1
1579489478,2020-01-20 04:04,19.75,1014.89,1040.67,214,26.76,1.77,-30,1
1579489538,2020-01-20 04:05,19.79,1014.89,1040.67,214,26.76,1.80,-25,1
1579489598,2020-01-20 04:06,19.76,1014.90,1040.68,214,26.76,1.78,-25,1
1579489659,2020-01-20 04:07,19.72,1014.92,1040.71,214,26.76,1.76,-23,1
1579489719,2020-01-20 04:08,19.72,1014.93,1040.71,214,26.75,1.75,-25,1
1579489779,2020-01-20 04:09,19.75,1014.96,1040.74,214,26.76,1.77,-29,1
1579489839,2020-01-20 04:10,19.75,1014.97,1040.75,214,26.76,1.77,-26,1
1579489900,2020-01-20 04:11,19.71,1014.96,1040.74,214,26.76,1.75,-27,1
1579489960,2020-01-20 04:12,19.72,1014.99,1040.77,214,26.76,1.76,-26,1
1579490020,2020-01-20 04:13,19.69,1014.99,1040.78,214,26.76,1.73,-30,1
1579490081,2020-01-20 04:14,19.74,1015.02,1040.80,214,26.76,1.76,-24,1
1579490141,2020-01-20 04:15,19.72,1015.03,1040.81,214,26.76,1.76,-27,1
1579490201,2020-01-20 04:16,19.68,1015.00,1040.78,214,26.76,1.73,-24,1
1579490261,2020-01-20 04:17,19.70,1014.97,1040.76,214,26.75,1.73,-26,1
1579490321,2020-01-20 04:18,19.77,1014.99,1040.77,214,26.76,1.79,-25,1
1579490382,2020-01-20 04:19,19.76,1015.00,1040.79,214,26.76,1.78,-28,1
1579490442,2020-01-20 04:20,19.71,1014.98,1040.77,214,26.76,1.75,-24,1
1579490502,2020-01-20 04:21,19.76,1014.99,1040.77,214,26.76,1.78,-23,1
1579490562,2020-01-20 04:22,19.72,1015.00,1040.79,214,26.76,1.76,-26,1
1579490623,2020-01-20 04:23,19.68,1015.00,1040.78,214,26.76,1.73,-24,1
1579490683,2020-01-20 04:24,19.67,1015.03,1040.81,214,26.76,1.72,-27,1
1579490743,2020-01-20 04:25,19.68,1015.02,1040.80,214,26.76,1.73,-27,1
1579490804,2020-01-20 04:26,19.64,1015.06,1040.84,214,26.76,1.69,-29,1
1579490864,2020-01-20 04:27,19.67,1015.05,1040.84,214,26.75,1.71,-30,1
1579490924,2020-01-20 04:28,19.70,1015.06,1040.84,214,26.76,1.74,-28,1
1579490984,2020-01-20 04:29,19.65,1015.10,1040.88,214,26.76,1.70,-23,1
1579491045,2020-01-20 04:30,19.65,1015.09,1040.87,214,26.75,1.69,-28,1
1579491105,2020-01-20 04:31,19.62,1015.11,1040.89,214,26.75,1.68,-26,1
1579491165,2020-01-20 04:32,19.60,1015.09,1040.87,214,26.75,1.66,-30,1
1579491228,2020-01-20 04:33,19.72,1015.11,1040.89,214,26.76,1.76,-24,1
1579491288,2020-01-20 04:34,19.62,1015.13,1040.91,214,26.75,1.68,-24,1
1579491349,2020-01-20 04:35,19.57,1015.16,1040.94,214,26.75,1.64,-27,1
1579491409,2020-01-20 04:36,19.55,1015.15,1040.93,214,26.74,1.61,-29,1
1579491469,2020-01-20 04:37,19.56,1015.13,1040.92,214,26.75,1.63,-26,1
1579491529,2020-01-20 04:38,19.56,1015.12,1040.90,214,26.74,1.62,-24,1
1579491589,2020-01-20 04:39,19.60,1015.11,1040.90,214,26.74,1.65,-25,1
1579491650,2020-01-20 04:40,19.58,1015.12,1040.90,214,26.75,1.65,-29,1
1579491710,2020-01-20 04:41,19.55,1015.15,1040.93,214,26.74,1.61,-27,1
1579491770,2020-01-20 04:42,19.54,1015.17,1040.95,214,26.74,1.61,-25,1
1579491831,2020-01-20 04:43,19.79,1015.17,1040.95,214,26.74,1.79,-26,1
1579491891,2020-01-20 04:44,19.54,1015.20,1040.98,214,26.74,1.61,-26,1
1579491951,2020-01-20 04:45,19.55,1015.20,1040.98,214,26.74,1.61,-25,1
1579492011,2020-01-20 04:46,19.51,1015.19,1040.97,214,26.74,1.59,-23,1
1579492072,2020-01-20 04:47,19.56,1015.23,1041.01,214,26.74,1.62,-26,1
1579492132,2020-01-20 04:48,19.25,1015.22,1041.00,214,26.74,1.40,-27,1
1579492195,2020-01-20 04:49,19.50,1015.23,1041.01,214,26.73,1.57,-25,1
1579492255,2020-01-20 04:50,19.55,1015.21,1041.00,214,26.74,1.61,-26,1
1579492316,2020-01-20 04:51,19.68,1015.22,1041.00,214,26.73,1.70,-25,1
1579492376,2020-01-20 04:52,19.49,1015.25,1041.04,214,26.73,1.57,-28,1
1579492436,2020-01-20 04:53,19.49,1015.26,1041.04,214,26.73,1.57,-21,1
1579492497,2020-01-20 04:54,19.55,1015.27,1041.06,214,26.73,1.61,-30,1
1579492557,2020-01-20 04:55,19.52,1015.32,1041.10,214,26.73,1.59,-27,1
1579492617,2020-01-20 04:56,19.52,1015.34,1041.13,214,26.73,1.59,-25,1
1579492677,2020-01-20 04:57,19.49,1015.36,1041.15,214,26.73,1.57,-30,1
1579492738,2020-01-20 04:58,19.50,1015.37,1041.16,214,26.73,1.57,-25,1
1579492798,2020-01-20 04:59,19.45,1015.40,1041.18,214,26.72,1.53,-22,1
1579492858,2020-01-20 05:00,19.50,1015.36,1041.15,214,26.72,1.57,-31,1
1579492919,2020-01-20 05:01,19.47,1015.38,1041.16,214,26.72,1.54,-30,1
1579492979,2020-01-20 05:02,19.45,1015.37,1041.15,214,26.72,1.53,-29,1
1579493039,2020-01-20 05:03,19.43,1015.40,1041.18,214,26.72,1.52,-23,1
1579493099,2020-01-20 05:04,19.45,1015.41,1041.19,214,26.72,1.53,-29,1
1579493160,2020-01-20 05:06,19.46,1015.39,1041.18,214,26.71,1.53,-27,1
1579493220,2020-01-20 05:07,19.46,1015.42,1041.20,214,26.72,1.53,-24,1
1579493280,2020-01-20 05:08,19.49,1015.46,1041.24,214,26.72,1.56,-24,1
1579493340,2020-01-20 05:09,19.45,1015.47,1041.25,214,26.72,1.53,-25,1
1579493401,2020-01-20 05:10,19.45,1015.48,1041.27,214,26.72,1.53,-26,1
1579493461,2020-01-20 05:11,19.40,1015.48,1041.27,214,26.72,1.49,-23,1
1579493521,2020-01-20 05:12,19.40,1015.53,1041.31,214,26.72,1.49,-30,1
1579493582,2020-01-20 05:13,19.41,1015.50,1041.29,214,26.72,1.50,-29,1
1579493642,2020-01-20 05:14,19.38,1015.53,1041.31,214,26.72,1.48,-31,1
1579493702,2020-01-20 05:15,19.40,1015.53,1041.32,214,26.72,1.49,-31,1
1579493762,2020-01-20 05:16,19.40,1015.53,1041.31,214,26.72,1.49,-30,1
1579493823,2020-01-20 05:17,19.41,1015.54,1041.32,214,26.72,1.50,-26,1
1579493883,2020-01-20 05:18,19.39,1015.52,1041.30,214,26.72,1.49,-29,1
1579493943,2020-01-20 05:19,19.37,1015.52,1041.30,214,26.72,1.47,-25,1
1579494004,2020-01-20 05:20,19.33,1015.55,1041.34,214,26.71,1.44,-28,1
1579494064,2020-01-20 05:21,19.44,1015.56,1041.34,214,26.72,1.52,-28,1
1579494124,2020-01-20 05:22,19.37,1015.53,1041.31,214,26.71,1.46,-25,1
1579494184,2020-01-20 05:23,19.36,1015.56,1041.34,214,26.71,1.45,-28,1
1579494245,2020-01-20 05:24,19.36,1015.61,1041.39,214,26.71,1.45,-22,1
1579494305,2020-01-20 05:25,19.32,1015.63,1041.42,214,26.71,1.43,-25,1
1579494365,2020-01-20 05:26,19.68,1015.66,1041.45,214,26.72,1.69,-28,1
1579494425,2020-01-20 05:27,19.32,1015.70,1041.48,214,26.71,1.43,-25,1
1579494486,2020-01-20 05:28,19.32,1015.72,1041.51,214,26.71,1.43,-28,1
1579494546,2020-01-20 05:29,19.38,1015.75,1041.53,214,26.71,1.47,-24,1
1579494606,2020-01-20 05:30,19.35,1015.79,1041.58,214,26.71,1.45,-29,1
1579494667,2020-01-20 05:31,19.37,1015.83,1041.61,214,26.72,1.47,-26,1
1579494727,2020-01-20 05:32,19.38,1015.86,1041.65,214,26.72,1.48,-25,1
1579494787,2020-01-20 05:33,19.42,1015.86,1041.64,214,26.72,1.51,-25,1
1579494847,2020-01-20 05:34,19.36,1015.89,1041.67,214,26.72,1.46,-25,1
1579494908,2020-01-20 05:35,19.41,1015.90,1041.68,214,26.73,1.51,-27,1
1579494968,2020-01-20 05:36,19.49,1015.95,1041.74,214,26.74,1.57,-26,1
1579495028,2020-01-20 05:37,19.36,1015.94,1041.72,214,26.73,1.47,-25,1
1579495089,2020-01-20 05:38,19.36,1015.93,1041.71,214,26.73,1.47,-27,1
1579495149,2020-01-20 05:39,19.35,1015.93,1041.71,214,26.73,1.46,-24,1